SCP
0 0 0 0 0 0 0 0 0 0 0 0 0 0 0 1 1 1 1 2 2 2 2 2 2 3 3 4 4 4 4 4 4 4 3 2 2 1 1 1 1 1 1 1
0 0 0 0 0 0 0 0 0 0 0 0 0 0 0 1 1 1 1 1 2 3 3 3 3 4 4 4 4 4 4 4 4 4 3 2 1 1 1 1 1 1 1 1
0 0 0 0 0 0 0 0 0 0 0 0 0 0 0 1 1 1 1 1 2 3 4 4 4 4 4 3 3 3 3 4 4 3 2 2 1 1 1 2 2 3 2 2
0 0 0 0 0 0 0 0 0 0 0 0 0 0 0 1 1 1 1 1 2 3 4 4 3 3 2 2 2 3 3 4 4 4 3 2 2 2 2 3 4 4 4 3
0 0 0 0 0 0 0 0 0 0 0 1 0 0 1 1 1 1 1 2 2 3 3 2 2 2 2 1 2 3 4 5 5 5 4 3 2 2 2 3 4 4 4 4
0 0 0 0 0 0 0 0 0 0 1 1 1 1 1 1 1 1 2 2 2 2 2 1 2 2 2 1 2 3 4 4 5 4 4 3 2 2 2 2 3 3 3 3
0 0 0 0 0 0 0 0 0 1 1 1 1 1 1 1 1 2 1 1 1 1 1 1 2 2 1 1 2 2 3 3 3 3 3 2 3 3 3 3 2 2 2 3
0 0 0 0 0 0 0 0 0 0 0 0 1 1 1 2 2 2 1 1 1 1 2 2 2 2 1 1 1 2 2 2 2 2 2 3 3 4 4 3 2 2 2 2
0 0 0 0 0 1 0 0 0 0 0 0 0 1 1 2 2 2 2 1 1 1 2 2 2 1 1 1 1 1 2 2 2 2 2 3 4 5 4 3 2 2 2 1
0 0 0 0 1 1 1 0 0 0 0 0 0 1 1 2 3 2 2 2 2 2 2 2 2 2 2 1 1 1 1 2 2 2 2 3 5 5 5 3 3 2 2 1
0 0 0 0 1 1 1 1 0 0 0 0 0 0 1 2 3 3 2 2 2 2 2 2 2 2 2 2 1 1 1 1 2 2 3 4 5 5 4 4 3 2 2 1
0 0 0 0 1 1 1 1 1 0 0 0 0 1 1 2 2 3 3 3 3 2 2 2 2 2 2 2 2 1 1 1 2 2 3 4 4 4 4 4 3 2 2 1
0 0 0 0 1 1 1 1 0 0 0 0 0 1 1 2 2 3 3 4 3 3 2 2 2 2 2 2 2 2 1 1 2 2 3 4 4 4 4 4 3 3 2 2
0 0 0 0 0 1 1 0 0 0 0 0 0 1 2 2 2 3 4 4 4 3 3 2 2 2 2 2 2 2 2 2 2 2 4 4 5 6 5 3 3 2 2 2
0 0 0 0 0 0 0 0 0 0 0 0 0 1 2 2 2 3 4 5 4 4 3 3 2 2 3 3 2 2 2 2 3 3 4 6 8 7 5 4 3 3 2 2
0 0 0 0 0 0 0 0 0 0 0 0 0 1 2 2 2 3 5 5 4 4 3 3 3 3 3 3 3 2 3 3 4 4 5 8 9 7 5 4 3 3 2 2
0 0 0 0 0 0 0 0 0 1 1 1 1 2 3 3 3 4 5 5 4 4 3 4 4 4 4 4 3 3 3 4 5 5 6 8 8 6 5 4 3 3 3 3
0 0 0 0 0 0 0 0 1 1 1 2 3 3 4 4 5 5 4 4 4 3 3 4 4 5 4 4 4 4 5 6 6 5 6 6 5 5 4 4 3 3 3 3
1 1 0 1 1 1 0 1 1 1 2 3 4 5 6 6 5 4 3 3 4 4 4 4 5 5 5 5 5 5 5 6 6 5 5 5 4 4 4 4 4 4 4 4
1 1 1 1 1 1 1 1 1 1 2 4 6 7 6 5 4 3 3 3 4 5 5 5 5 5 5 6 6 6 6 6 5 5 5 5 5 4 4 4 4 5 4 4
1 1 1 1 1 1 1 1 1 2 3 6 7 6 5 4 3 3 3 4 5 5 5 5 5 5 5 6 8 8 7 6 5 5 5 5 5 5 5 5 5 6 5 5
0 1 1 1 1 1 1 1 1 2 4 7 7 5 3 3 3 3 4 5 5 4 4 5 5 5 5 7 9 11 10 9 8 7 6 7 7 8 7 6 6 6 6 6
1 1 1 1 1 1 1 1 1 2 4 5 5 4 3 3 4 4 5 6 6 5 5 5 6 7 6 8 11 12 12 11 10 9 9 10 10 10 9 8 7 6 6 5
1 1 1 1 1 1 1 2 2 2 3 3 3 3 3 3 3 4 5 6 7 7 6 6 7 8 8 9 11 11 11 10 9 9 10 11 11 11 10 9 8 7 6 5
2 2 1 1 1 2 2 3 3 3 3 3 3 2 2 2 2 3 4 6 7 9 9 8 9 9 9 10 11 11 10 9 8 8 9 10 10 11 12 10 9 8 8 7
3 2 1 2 2 2 3 4 4 4 3 3 3 3 2 2 2 2 3 5 7 9 10 10 10 9 9 10 10 10 10 10 9 8 9 10 10 11 12 11 10 10 9 8
Wind_Speed
9 10 9 7 6 4 3 3 1 2 3 4 4 3 5 7 8 8 8 8 8 7 7 7 6 5 5 4 4 3 2 2 1 1 1 1 2 1 2 2 3 3 3 3
9 11 7 5 5 6 6 5 2 2 3 4 3 4 5 7 9 8 8 8 9 9 8 7 7 6 5 5 4 4 4 3 3 1 1 0 1 1 2 2 3 2 2 2
12 5 5 7 8 9 8 6 3 2 3 5 4 6 7 8 8 8 8 8 9 9 9 9 8 7 7 6 6 4 4 3 3 2 2 2 2 2 2 2 2 2 2 2
10 5 7 9 9 9 7 3 4 4 6 3 5 3 5 7 8 9 9 9 9 9 10 9 9 9 8 7 6 5 5 4 3 3 2 2 1 1 2 1 2 3 2 2
8 8 9 10 8 8 3 2 5 6 6 5 5 6 3 7 7 8 9 10 10 10 10 10 10 10 9 8 7 6 5 5 4 3 3 3 2 2 2 2 3 2 3 2
6 6 7 6 5 6 5 6 6 7 8 7 4 7 3 4 5 6 8 9 10 10 10 10 10 9 9 8 7 7 7 6 5 4 4 3 2 2 2 2 3 3 2 2
10 9 7 6 7 9 10 9 7 7 7 4 3 7 1 2 2 4 7 8 9 11 10 10 10 10 9 9 8 8 7 7 6 5 4 4 3 3 3 2 2 2 2 2
12 12 9 8 8 7 10 11 8 7 6 4 7 6 1 1 1 3 5 7 8 10 10 10 10 10 10 10 9 9 8 7 6 6 5 4 4 3 3 2 1 2 2 2
9 8 8 6 6 8 10 10 8 10 9 8 5 4 4 3 3 4 6 7 8 9 10 10 10 10 10 10 10 10 9 8 7 7 6 5 4 3 3 3 3 2 2 3
6 7 8 6 7 5 8 8 7 8 8 9 7 8 4 4 4 4 5 6 8 8 9 10 9 9 9 9 9 9 9 8 7 7 6 6 6 5 4 4 3 3 3 2
8 9 8 9 9 8 9 9 8 7 8 10 8 4 2 3 3 3 4 5 7 8 9 9 8 8 8 8 9 9 9 8 8 7 6 6 6 6 5 4 4 4 3 3
8 8 8 8 5 5 8 9 10 9 7 9 9 3 4 2 3 3 3 4 5 6 7 8 8 8 8 8 8 8 9 9 8 8 7 7 6 6 6 5 5 4 4 4
6 8 9 10 10 9 9 9 10 10 8 9 10 4 5 3 2 3 3 4 5 6 6 7 8 8 7 8 7 8 8 9 8 8 8 7 7 7 6 5 5 5 5 4
6 9 11 10 5 7 10 10 11 12 10 10 11 8 4 3 2 2 3 4 5 6 6 6 7 7 7 7 7 7 8 8 9 8 8 8 7 7 7 6 6 5 5 5
8 10 11 9 7 9 11 11 13 15 14 13 10 9 6 3 3 2 3 4 5 5 6 6 6 6 7 7 7 7 7 8 8 9 8 8 8 7 7 7 7 6 6 5
6 7 9 10 10 11 12 13 13 14 14 14 13 10 4 3 4 3 3 4 5 5 5 6 6 6 7 7 7 7 7 7 8 9 9 8 8 8 7 7 7 6 6 5
6 7 9 11 9 11 14 12 12 12 11 12 12 7 4 4 4 4 3 4 4 5 5 5 5 5 6 6 7 7 7 7 8 8 8 8 8 8 8 7 7 6 6 6
6 8 8 9 9 14 5 3 7 9 9 9 9 6 5 5 4 4 4 4 4 4 4 5 5 5 5 6 6 6 7 7 8 8 8 8 8 8 8 7 7 7 6 6
7 8 8 8 12 11 6 4 5 7 8 6 8 6 5 3 5 5 3 2 3 4 4 4 4 4 5 5 6 7 7 7 8 8 8 9 8 8 8 8 7 7 6 6
7 8 9 9 12 11 3 2 3 7 9 3 5 5 5 5 8 3 1 2 3 3 3 3 3 4 4 4 5 7 7 7 7 7 7 7 8 8 8 8 7 6 6 6
11 10 12 11 11 7 2 1 4 9 1 2 3 4 6 5 5 1 1 2 3 4 4 4 4 4 3 4 5 7 7 7 7 7 7 7 7 8 8 7 6 6 6 6
10 9 10 9 11 6 3 3 4 2 3 2 3 3 3 2 2 1 1 1 2 2 3 3 3 3 3 4 5 6 7 6 6 6 7 6 6 6 6 7 6 6 6 6
7 5 4 5 3 3 2 0 1 2 3 3 3 3 3 3 2 1 1 1 1 2 2 2 3 3 3 4 5 6 5 5 6 6 6 6 6 6 6 7 7 7 7 6
6 4 5 5 5 3 2 1 2 3 4 4 4 4 3 3 2 1 1 1 2 2 2 2 3 3 3 4 4 5 4 5 6 6 6 6 6 6 6 5 6 6 6 7
4 5 7 8 5 5 5 3 3 4 4 3 3 3 3 3 2 2 2 1 2 2 2 2 2 2 3 3 3 4 4 5 6 6 6 6 5 5 5 5 4 6 5 5
6 7 8 6 4 5 3 3 4 4 4 4 4 4 4 3 3 3 2 2 2 2 2 2 2 2 2 2 3 3 4 5 5 5 6 5 5 4 5 5 4 0 2 3
Wind_Direction
196 216 214 212 236 268 263 259 212 104 140 212 216 201 170 173 192 189 184 181 177 179 173 176 178 178 174 167 168 174 179 167 198 204 207 136 120 106 104 105 102 115 118 118
200 219 217 216 221 227 226 229 182 152 163 227 231 227 194 185 199 197 192 189 185 181 179 180 180 178 179 173 176 177 180 175 194 159 176 134 89 105 92 88 104 117 119 122
219 196 181 208 209 217 224 236 224 190 184 207 240 210 194 186 198 198 200 196 193 187 183 180 179 179 182 179 181 180 178 178 186 179 175 149 152 169 138 125 122 114 114 118
223 194 197 212 212 226 222 218 227 217 231 212 245 258 167 183 192 199 201 199 196 188 185 184 181 180 184 183 179 175 174 177 179 190 186 178 166 133 105 110 106 120 121 123
202 197 207 217 215 225 232 183 219 229 243 252 223 263 162 169 192 195 197 197 195 192 189 186 184 181 183 180 176 171 169 173 177 188 176 190 178 151 138 122 116 132 129 137
211 202 224 225 208 208 179 184 199 225 243 244 240 259 224 158 204 195 187 193 193 191 189 187 182 179 182 180 178 172 169 176 179 185 186 196 174 160 140 135 135 155 139 139
201 198 193 201 190 184 208 215 218 220 224 230 191 249 270 108 189 205 191 191 191 188 187 186 183 182 182 182 180 176 173 177 180 182 186 186 182 177 172 172 146 156 135 133
203 195 186 199 216 207 217 232 245 254 251 221 195 239 169 121 179 190 184 183 183 186 186 185 183 185 184 183 183 180 178 180 179 182 183 185 190 193 174 172 162 145 123 109
213 193 172 198 225 234 218 234 258 259 258 261 226 216 191 182 180 171 170 170 175 178 179 181 182 185 185 184 185 185 181 182 182 183 180 181 188 192 169 163 174 151 130 139
233 208 184 181 200 212 251 234 232 246 254 254 240 231 218 183 188 176 172 171 172 174 176 178 179 182 184 184 183 185 184 183 184 183 186 176 179 177 174 175 156 150 146 135
230 220 191 193 212 206 201 217 240 245 255 261 256 235 124 189 192 189 178 174 176 178 176 177 176 178 179 181 180 182 184 183 184 187 185 180 176 168 167 169 167 163 157 155
224 233 213 204 197 252 233 229 228 238 238 254 268 251 113 155 171 185 180 171 170 176 175 174 173 173 176 179 181 183 185 185 185 183 183 183 175 170 171 171 168 163 166 170
207 228 216 202 192 196 217 221 233 245 245 246 254 233 127 142 167 173 183 171 162 171 173 171 171 173 178 182 183 185 188 188 187 182 185 180 176 175 178 174 166 166 169 173
240 232 241 240 228 199 211 218 226 237 241 244 248 256 200 192 196 182 179 178 171 170 171 174 174 177 179 184 185 187 190 190 186 184 187 180 181 179 178 174 170 173 176 179
232 231 236 249 249 239 236 229 228 237 247 256 258 257 247 232 222 211 199 193 186 178 176 178 181 179 183 186 189 191 191 189 187 185 188 184 183 179 178 175 176 176 183 188
229 234 231 234 238 241 244 240 236 237 243 249 254 255 255 229 218 212 212 213 205 199 191 186 186 184 189 190 191 192 193 190 187 189 189 183 183 182 182 180 177 176 182 188
208 218 231 233 225 241 238 235 235 235 238 245 251 258 238 230 218 218 220 229 225 217 209 202 199 195 194 195 195 195 192 189 189 191 189 183 185 187 187 185 180 180 183 186
220 225 231 237 225 237 237 219 236 241 245 252 260 257 238 238 224 228 231 232 230 227 221 213 210 203 202 198 196 199 190 190 192 194 192 187 190 191 188 187 187 186 184 186
223 223 232 234 234 240 219 210 231 241 243 248 254 247 244 234 215 211 208 229 242 240 230 226 223 213 205 199 194 194 193 192 195 198 197 193 194 191 188 189 188 184 183 187
198 222 235 230 240 241 213 148 238 245 238 225 253 240 229 229 237 203 182 267 267 256 239 231 227 220 204 201 198 199 196 192 196 199 200 196 194 194 194 191 188 183 183 186
190 206 226 234 240 242 85 140 205 230 268 15 277 247 233 238 283 336 271 278 279 262 248 235 229 227 217 204 198 203 200 200 199 196 196 195 197 196 195 189 186 183 185 182
210 210 216 230 239 228 105 188 227 337 358 318 296 272 253 257 270 229 221 267 289 274 258 243 235 234 221 208 202 208 208 201 195 195 195 194 196 201 191 188 190 189 187 187
226 247 242 241 254 72 105 342 349 308 294 299 290 280 268 266 260 244 236 300 310 302 284 270 251 246 231 217 211 216 214 200 192 190 193 195 191 195 194 193 195 194 195 202
198 233 243 240 219 208 222 254 276 284 287 289 280 266 259 262 267 280 302 310 317 317 290 264 250 245 237 224 217 217 207 199 195 191 189 189 192 193 189 199 204 204 204 210
224 216 232 240 243 243 225 249 268 279 275 271 267 263 265 261 255 257 266 278 290 296 285 259 249 246 243 224 211 203 196 197 198 192 192 194 198 194 196 204 210 219 216 216
231 232 240 253 241 255 254 280 283 277 268 263 259 263 265 263 264 266 270 267 266 279 283 269 263 254 249 232 213 203 195 194 198 206 201 201 202 197 206 202 202 196 234 180